Location: San Antonio
(29.4240°N, 98.4930°W)
Time: 10:17:49
(UTC-06:00)

Transit 4A - Pass Details

Date: 15 December 2025
Orbit: 867 x 974 km, 66.8° (Epoch: 17 January)

Event Time Altitude Azimuth Distance (km) Brightness Sun altitude
Exits shadow 05:11:58 44° 212° (SSW) 1,271 8.4 -27.3°
Drops below altitude 10° 05:16:42 10° 175° (S) 2,676 10.5 -26.3°
Sets 05:19:19 0° 171° (S) 3,631 11.3 -25.8°
